Location: El Cajon
(32.7948°N, 116.9625°W)
Time: 00:39:57
(UTC+00:00)

Daily predictions for brighter satellites

Satellite Brightness Start Highest point End
(mag) Time Altitude Azimuth Time Altitude Azimuth Time Altitude Azimuth
NOSS 3-3 (A) 3.8 02:58:12 10° SSW 03:03:35 60° ESE 03:09:33 10° NE
NOSS 3-3 (C) 3.8 02:58:18 10° SSW 03:03:41 60° ESE 03:09:39 10° NE
Cosmos 1486 Rocket 4.3 02:59:13 10° SSW 03:04:31 76° WNW 03:09:52 10° NNE
HJ-1C 3.9 03:02:06 10° S 03:05:23 63° W 03:08:41 10° NNW
SL-4 R/B 2.3 03:01:37 10° NW 03:05:59 89° NE 03:10:38 10° SE
Centaur D-1AR AC-36 3.4 03:03:00 10° SW 03:07:34 19° S 03:10:15 10° SE
Cosmos 1689 Rocket 3.3 03:10:23 10° N 03:13:03 42° WNW 03:15:41 10° SSW
Cosmos 1844 4.4 03:07:23 10° SSW 03:13:03 63° WNW 03:18:42 10° NNE
USA 186 2.0 03:11:01 10° SE 03:13:16 29° ENE 03:15:25 10° NNE
Cosmos 1242 Rocket 3.3 03:11:12 10° SSE 03:14:25 32° E 03:17:36 10° NNE
GPS 2-04 Rocket1 3.1 03:13:57 10° W 03:18:06 67° N 03:22:11 10° ENE
Resurs 01 Rocket 3.7 03:19:44 10° E 03:21:33 12° ENE 03:23:22 10° NE
SL-08 ROCKET BODY 4.3 03:15:57 10° N 03:21:47 66° E 03:27:33 10° SSE
X-37B 3.0 03:21:20 10° NNW 03:23:31 17° NNE 03:25:41 10° ENE
S3M 4.0 03:23:01 10° S 03:29:20 71° E 03:35:38 10° N
OBJECT-B 1.1 03:28:49 12° SSE 03:31:42 48° ENE 03:34:50 10° N
Delta 2 Rocket 3.8 03:29:07 10° WSW 03:34:30 89° NNW 03:39:18 10° ENE
Cosmos 1437 Rocket 4.1 03:33:26 10° SSW 03:37:06 42° W 03:40:52 10° N
ERS-2 3.2 03:33:44 10° N 03:37:14 48° WNW 03:40:43 10° SSW
Cosmos 1805 Rocket 3.5 03:34:37 10° N 03:38:58 69° E 03:43:19 10° SSE
Cosmos 2315 Rocket 4.4 03:34:17 10° SSE 03:40:13 43° E 03:46:10 10° NNE
Cosmos 1633 Rocket 4.3 03:39:43 10° NNE 03:43:22 25° ENE 03:45:05 20° ESE
Cosmos 1328 Rocket 4.2 03:42:02 15° SSE 03:45:13 35° E 03:49:14 10° NNE
ISS -2.9 03:42:24 10° SSW 03:45:19 28° SE 03:46:50 20° E
Milstar 3 4.4 03:26:22 10° WSW 03:46:27 63° S 03:56:11 11° E
Helios 1A Rocket 3.9 03:44:33 10° S 03:48:32 48° W 03:52:33 10° NNW
USA 290 2.1 03:47:41 10° NNW 03:50:54 82° ENE 03:52:36 25° SSE
Cosmos 1777 Rocket 3.9 03:49:21 10° S 03:54:27 64° ESE 03:59:35 10° NNE
USA 267 3.5 03:50:29 15° SSE 03:55:58 69° SW 04:02:31 10° NW
Cosmos 1437 2.6 03:57:11 43° ESE 03:57:28 45° E 04:00:12 10° NNE
Tianhe-1 0.9 03:55:46 10° SW 03:58:52 69° SSE 04:00:18 28° ENE
Cosmos 1602 4.1 03:56:06 10° N 03:59:49 44° E 04:01:07 32° SE
Ariane Rocket 2.9 03:57:01 19° SSE 04:00:37 70° ENE 04:05:40 10° N
Meteor 1-26 Rocket 4.1 03:55:55 10° S 04:01:38 84° E 04:07:11 10° N
Cosmos 2082 Rocket 4.2 04:01:14 10° NNE 04:03:14 12° NE 04:05:04 10° ENE
Cosmos 1933 4.3 03:59:26 10° SSW 04:03:19 47° W 04:07:13 10° N
Resurs 1-3 3.5 04:04:41 25° SSE 04:07:09 75° ENE 04:11:32 10° N
Cosmos 1782 2.8 04:05:13 12° S 04:08:54 84° W 04:12:54 10° N
OAO 3 Rocket 3.0 04:05:03 10° WSW 04:09:39 64° SSE 04:12:04 27° E
Cosmos 1812 3.1 04:12:34 39° E 04:12:41 39° E 04:16:18 10° NNE
Cosmos 1666 Rocket 3.4 04:09:37 10° N 04:13:59 74° E 04:15:46 34° SSE
SJ 16-02 1.5 04:13:23 35° SSE 04:14:50 49° ESE 04:19:06 10° NNE
DELTA 2 R/B (1) 3.6 04:11:18 10° WNW 04:16:50 69° SSW 04:19:08 35° SE
COSMOS 2406 4.1 04:12:20 10° N 04:17:23 32° ENE 04:19:01 27° E
SJ-6B 4.3 04:16:43 11° SSW 04:19:59 33° W 04:23:35 10° NNW
Cosmos 2278 Rocket 2.2 04:15:32 10° SSW 04:21:11 85° WNW 04:26:52 10° NNE
Sich 1 4.0 04:17:25 10° NNW 04:21:36 46° W 04:24:56 15° SSW
Meteor 2-6 Rocket 4.2 04:23:08 35° SSE 04:25:11 55° E 04:30:32 10° NNE
Landsat 7 4.1 04:24:44 42° ESE 04:25:47 51° ENE 04:30:24 10° N
Cosmos 1151 Rocket 3.8 04:23:19 10° SSW 04:27:32 50° W 04:31:47 10° N
Meteor 1-14 Rocket 4.3 04:21:56 10° N 04:27:37 58° E 04:29:27 40° SE
BREEZE-M DEB (TANK) 3.6 04:35:16 10° WNW 04:37:45 34° SW 04:37:53 34° SSW
ATLAS 5 CENTAUR R/B 2.9 04:33:40 10° NW 04:39:41 61° WSW 04:42:54 32° S
IGS 5A 3.3 04:40:06 73° SSE 04:40:29 90° NNE 04:44:38 10° NNW
SPOT 1/Viking Rocket 3.7 04:44:07 51° E 04:44:44 55° ENE 04:49:47 10° N
CZ-4C R/B 3.2 04:39:04 10° NNW 04:46:44 67° ENE 04:49:57 41° SE
Mugunghwa Rocket 4.1 04:41:34 10° WSW 04:47:41 50° S 04:48:30 48° SSE
BREEZE-M DEB (TANK) 3.1 04:43:55 10° NW 04:48:59 56° N 04:48:59 56° N
Cosmos 1500 3.5 04:48:11 10° N 04:51:25 61° NW 04:51:25 61° NW
Cosmos 2228 Rocket 4.0 04:58:50 37° NE 04:58:50 37° NE 05:01:46 10° NNE
Resurs 01 Rocket 2.3 04:56:47 43° SW 04:57:33 49° W 05:01:52 10° NNW
GPS 2-04 Rocket1 3.2 04:53:42 10° WNW 04:57:28 57° NNW 04:57:28 57° NNW
CZ-2C R/B 4.4 04:55:11 10° N 04:59:34 51° WNW 05:01:24 32° SW
SPOT 3 Rocket 3.9 04:58:57 47° SSW 05:00:10 60° WSW 05:05:15 10° NNW
X-37B 2.8 04:57:16 10° WNW 04:58:52 27° WNW 04:58:52 27° WNW
Cosmos 1833 Rocket 2.5 04:57:12 10° NNW 05:02:51 82° ENE 05:03:23 73° SE
ATLAS 2AS CENTAUR R/B 4.0 04:59:27 10° N 05:05:15 25° NE 05:07:06 23° ENE
Nadezhda 1 Rocket 4.0 05:06:24 59° ESE 05:06:38 59° E 05:12:47 10° NNE
Spot 2 Rocket 3.5 05:08:20 66° NE 05:08:20 66° NE 05:13:02 10° N
ERS-1 Rocket 3.7 05:09:55 40° NE 05:09:55 40° NE 05:13:52 10° N
Cosmos 2184 Rocket 3.8 05:04:17 10° N 05:10:27 68° E 05:10:49 66° ESE
Meteor 1-11 Rocket 4.1 05:05:07 10° N 05:10:37 50° ENE 05:10:37 50° ENE
Cosmos 1538 Rocket 3.9 05:05:38 10° NNW 05:10:57 87° NE 05:10:57 87° NE
Cosmos 2074 Rocket 3.8 05:06:00 10° N 05:12:19 74° E 05:12:51 69° SE
Meteor 1-5 Rocket 4.1 05:10:51 10° NNW 05:16:08 70° W 05:16:22 69° WSW
Delta 2 Rocket 4.1 05:12:13 10° W 05:16:44 57° NNW 05:16:44 57° NNW
USA 307 4.4 05:16:09 10° NNW 05:19:05 31° NNE 05:19:05 31° NNE
Cosmos 1271 Rocket 4.2 05:22:02 37° NW 05:22:02 37° NW 05:25:06 10° N
ISS -0.8 05:19:25 10° W 05:20:14 14° W 05:20:14 14° W
Cosmos 2297 4.0 05:23:59 57° NE 05:23:59 57° NE 05:28:31 10° NNE
Cosmos 967 Rocket 4.4 05:29:59 75° SW 05:30:32 84° WNW 05:36:51 10° NNE
Terra 3.1 05:34:53 35° NNE 05:34:53 35° NNE 05:37:50 10° N
GOES 2 Rocket 4.4 05:24:17 10° W 05:33:33 65° S 05:33:35 65° S
ARIANE 5 R/B 4.2 05:46:13 32° NW 05:46:13 32° NW 05:48:52 10° NNW
Cosmos 2082 Rocket 2.6 05:42:19 10° NNW 05:46:55 61° NNW 05:46:55 61° NNW
SPOT 5 3.8 05:52:03 49° NW 05:52:03 49° NW 05:56:00 10° NNW
SJ 16-02 4.3 05:52:01 10° W 05:53:39 12° WNW 05:55:17 10° NW
Cosmos 1898 Rocket 4.4 05:54:30 48° NW 05:54:30 48° NW 05:58:53 10° N
Cosmos 1943 Rocket 3.0 06:02:06 47° N 06:02:06 47° N 06:06:08 10° NNE
Cosmos 2369 Rocket 3.7 06:14:45 28° NNE 06:14:45 28° NNE 06:17:18 10° NNE
Milstar 3 3.7 06:19:22 10° W 06:29:47 56° SW 06:29:47 56° SW
CZ-4C R/B 4.4 06:28:45 10° WNW 06:35:04 26° WSW 06:35:09 26° WSW
ATLAS 2AS CENTAUR R/B 3.6 06:49:42 10° NW 06:54:32 42° WNW 06:54:32 42° WNW
Lacrosse 5 4.2 08:06:31 20° NNE 08:06:31 20° NNE 08:08:14 10° NNE
Resurs 1-4 Rocket 4.4 08:18:45 10° NE 08:20:20 16° ENE 08:20:20 16° ENE
USA 215 4.4 08:26:21 26° E 08:29:06 37° NE 08:34:58 10° NNW
Cosmos 2227 Rocket 4.1 08:47:18 10° N 08:51:40 22° ENE 08:52:41 21° ENE
Cosmos 2297 Rocket 3.7 08:49:28 10° N 08:54:12 31° ENE 08:54:12 31° ENE
Cosmos 2123 Rocket 4.5 09:18:35 55° ENE 09:18:35 55° ENE 09:23:56 10° NNE
Cosmos 2100 Rocket 4.3 09:12:14 10° N 09:17:29 62° NNE 09:17:29 62° NNE
Cosmos 1802 Rocket 4.4 09:14:50 10° N 09:20:19 56° ENE 09:20:19 56° ENE
COSMOS 2455 3.5 09:26:15 10° NNW 09:30:33 49° NNW 09:30:33 49° NNW
Lacrosse 4 Rocket 3.3 09:38:55 31° NNE 09:38:55 31° NNE 09:41:15 10° NNE
Cosmos 2219 3.6 09:33:37 10° NNW 09:38:34 61° NNE 09:38:34 61° NNE
SL-16 R/B 2.5 09:45:41 81° NNW 09:45:41 81° NNW 09:51:39 10° NNW
ADEOS II 2.5 09:43:17 10° NNE 09:47:49 59° ENE 09:47:49 59° ENE
NPP 4.2 09:51:17 10° N 09:55:31 48° NNW 09:55:31 48° NNW
CZ-2D R/B 3.1 09:51:52 10° N 09:55:45 38° NW 09:55:45 38° NW
SL-08 R/B 4.4 09:51:14 10° N 09:57:38 84° E 09:58:09 76° SSE
Resurs 1-4 Rocket 3.2 09:57:47 10° N 10:01:25 33° NW 10:01:25 33° NW
Meteor 2-5 Rocket 4.1 10:04:04 54° SE 10:04:45 58° E 10:10:17 10° NNE
ADEOS Rocket 4.0 09:59:24 18° SE 10:04:57 57° ENE 10:12:30 10° N
Cosmos 1697 Rocket 3.4 10:05:50 41° NW 10:05:50 41° NW 10:10:33 10° N
Cosmos 407 Rocket 4.0 10:03:13 10° N 10:08:32 59° ENE 10:09:48 46° ESE
GP-B 3.7 10:04:29 10° N 10:08:12 54° NE 10:08:12 54° NE
Atlas Centaur 2 3.6 10:11:03 35° SSE 10:11:03 35° SSE 10:17:07 10° E
USA 215 3.6 10:13:35 44° W 10:13:35 44° W 10:18:16 10° NW
Cosmos 1624 Rocket 4.1 10:12:43 69° NW 10:12:43 69° NW 10:17:40 10° NNE
Meteor 1-16 Rocket 4.4 10:08:09 10° NNW 10:13:21 58° WNW 10:13:21 58° WNW
Cosmos 1725 Rocket 3.8 10:07:50 10° N 10:14:02 70° W 10:14:14 69° WSW
Cosmos 1626 4.3 10:17:00 19° NNW 10:17:00 19° NNW 10:18:16 10° N
CBERS-1 3.9 10:11:30 10° NNE 10:16:38 81° ESE 10:16:43 80° ESE
Cosmos 1980 Rocket 2.1 10:17:42 70° WNW 10:17:48 70° WNW 10:23:28 10° NNE
USA 281 3.8 10:22:58 37° W 10:22:58 37° W 10:27:50 10° NW
Cosmos 2233 Rocket 3.9 10:16:41 10° N 10:22:53 86° E 10:24:41 49° S
CENTAUR R/B 4.0 10:21:27 17° SE 10:23:55 23° ESE 10:28:33 10° ENE
Cosmos 2016 Rocket 4.4 10:22:10 10° NNW 10:27:39 43° W 10:27:39 43° W
DELTA 2 DEB (DPAF) 4.2 10:29:20 66° NNW 10:29:20 66° NNW 10:33:15 10° NNW
Cosmos 1452 Rocket 4.1 10:30:10 38° SSE 10:31:43 50° ESE 10:36:48 10° NNE
ATLAS 2A CENTAUR R/B 3.8 10:32:55 13° SE 10:32:55 13° SE 10:35:17 10° ESE
Cosmos 220 Rocket 4.1 10:33:33 71° ESE 10:33:41 72° ESE 10:38:06 10° NNE
Cosmos 2056 Rocket 4.0 10:34:18 43° WNW 10:34:18 43° WNW 10:39:01 10° N
Cosmos 1300 3.1 10:31:22 10° N 10:34:41 62° NNE 10:34:41 62° NNE
Cosmos 2227 Rocket 3.0 10:30:33 10° NW 10:34:26 35° WNW 10:34:26 35° WNW
Cosmos 2297 Rocket 3.7 10:33:34 10° NW 10:35:57 21° WNW 10:35:57 21° WNW
Cosmos 2278 4.0 10:39:29 48° W 10:40:14 51° WNW 10:45:48 10° N
Cosmos 1346 Rocket 4.5 10:39:36 22° SE 10:41:04 29° E 10:44:28 10° NNE
Cosmos 2285 Rocket 4.3 10:40:00 44° WSW 10:41:16 50° WNW 10:47:30 10° N
Cosmos 1023 Rocket 4.4 10:39:31 10° NNW 10:44:43 66° WSW 10:45:44 54° SSW
CZ-2C R/B 4.2 10:44:10 10° NE 10:48:37 28° E 10:53:03 10° SSE
SEDSat Delta rocket 4.3 10:48:20 33° S 10:48:44 33° SSE 10:53:14 10° E
OAO 2 Rocket 3.5 10:47:16 40° WNW 10:49:09 71° N 10:54:29 10° E
IRS-1C 4.0 10:44:09 10° NNE 10:49:31 87° WNW 10:51:22 43° SSW
Cosmos 2082 3.6 10:46:03 10° NNW 10:51:42 64° WSW 10:54:30 30° S
SL-16 R/B 2.6 10:50:34 29° S 10:53:22 59° ESE 10:58:56 10° NNE
Cosmos 1340 3.6 10:59:12 33° NW 10:59:12 33° NW 11:02:00 10° N
MSX 3.8 10:53:54 10° N 10:59:40 76° WNW 11:02:20 34° SSW
SL-08 R/B 4.0 10:55:34 10° SSE 11:00:09 54° ENE 11:04:41 10° N
Cosmos 1892 Rocket 4.0 10:58:35 27° SSE 11:00:46 59° E 11:05:01 10° NNE
Meteor 1-28 Rocket 4.5 11:03:35 26° WNW 11:03:35 26° WNW 11:05:41 10° NNW
Cosmos 1140 Rocket 3.8 10:57:30 10° NNW 11:02:27 45° WSW 11:03:23 40° SW
OAO 1 Rocket 4.4 11:01:43 40° WSW 11:03:42 88° SSE 11:09:04 10° ENE
BREEZE-M DEB (TANK) 4.2 11:06:07 15° NW 11:06:35 15° NW 11:08:17 10° N
IDEFIX/ARIANE 42P 3.2 11:04:05 10° N 11:08:58 40° WNW 11:10:31 33° WSW
OAO 3 Copernicus 4.3 11:08:21 39° SW 11:10:08 69° SSE 11:15:10 10° ENE
NOSS 3-2 (C) 3.8 11:12:09 20° S 11:15:48 53° ESE 11:21:32 10° NE
Okean 1-7 Rocket 4.5 11:11:51 11° SSE 11:16:05 50° E 11:20:30 10° NNE
CZ-2C R/B 3.7 11:15:02 10° NNE 11:18:58 49° E 11:22:27 13° S
Cosmos 2322 Rocket 2.3 11:16:39 21° SSW 11:20:33 80° ESE 11:26:16 10° NNE
Meteor 2-10 Rocket 3.6 11:17:26 10° N 11:23:05 79° W 11:28:29 10° S
Cosmos 2058 Rocket 4.1 11:20:46 10° N 11:25:09 49° E 11:29:30 10° SSE
ADEOS II 4.0 11:25:20 10° NW 11:27:34 13° WNW 11:28:45 12° WNW
Cosmos 1726 Rocket 3.5 11:23:16 10° N 11:27:40 87° W 11:32:05 10° S
ARIANE 5 R/B 2.9 11:22:55 10° N 11:27:46 45° WNW 11:30:25 24° SW
Cosmos 1606 Rocket 3.5 11:23:24 10° NNW 11:27:47 65° W 11:31:47 12° S
Cosmos 2228 3.2 11:25:02 10° NNW 11:29:11 48° W 11:31:54 20° SSW
Cosmos 1891 Rocket 4.4 11:23:43 10° NNW 11:29:42 67° W 11:35:39 10° S
Cosmos 2263 Rocket 2.2 11:25:14 10° NNW 11:30:55 85° ENE 11:36:36 10° SSE
CZ-4B R/B 4.3 11:33:07 10° N 11:37:36 33° WNW 11:40:23 20° WSW
NOSS 3-2 (A) 3.5 11:34:58 22° SW 11:38:23 52° NW 11:44:18 10° NNE
Meteor 1-21 Rocket 4.2 11:34:06 10° S 11:39:43 89° E 11:45:17 10° N
Aureole 2 Rocket 2.3 11:38:23 10° NW 11:40:53 35° WSW 11:41:22 32° SW
Cosmos 2360 Rocket 2.5 11:37:35 10° S 11:43:12 69° ESE 11:48:50 10° NNE
Cosmos 2219 Rocket 4.4 11:39:22 10° SSE 11:43:38 23° E 11:47:57 10° NE
Cosmos 405 4.3 11:42:17 10° NW 11:44:57 21° W 11:45:23 20° WSW
Tsikada Rocket 4.1 11:39:35 10° S 11:46:01 86° W 11:52:25 10° N
CZ-2C R/B 3.0 11:50:15 11° S 11:50:15 11° S 11:50:29 10° S
ADEOS Rocket 4.5 11:46:21 15° SW 11:50:41 25° W 11:56:41 10° NW
USA 238 DEB 3.8 11:46:56 16° SW 11:52:14 60° WNW 11:58:55 10° NNE
Cosmos 2237 4.2 11:46:43 11° SSW 11:52:16 79° WNW 11:58:00 10° NNE
USA 238 3.8 11:47:02 15° SW 11:52:20 61° WNW 11:59:01 10° NNE
ISS -2.9 11:51:13 10° NW 11:54:32 53° NE 11:57:50 10° ESE
